Temperature
20 20 20 20 23 24 23 23 23 23 23 22 21 22 22 22 21 20 17 17 17 17 17 17 17 17 17 17 17 17 17 17 17 17 17 17 17 17 17 17 17 17 17 17 17 17 17 17 17
20 20 20 22 24 24 23 23 23 22 22 21 21 21 21 20 19 18 17 17 17 16 16 16 17 17 17 17 17 17 17 17 17 17 17 17 17 17 17 17 17 17 17 17 17 17 17 17 17
20 20 21 24 24 24 23 23 23 22 21 21 21 21 20 19 18 17 17 17 16 16 16 16 17 17 17 17 17 17 17 17 17 17 17 17 17 17 17 17 17 17 17 17 17 17 17 17 17
20 21 22 24 23 23 23 23 22 22 21 21 21 21 19 18 18 17 17 17 16 16 16 16 17 17 17 17 17 17 17 17 17 17 17 17 17 17 17 17 17 17 17 17 17 17 17 17 17
20 22 24 23 23 22 23 22 22 22 22 21 21 21 19 17 17 17 17 16 16 16 16 16 17 17 17 17 17 17 17 17 17 17 17 17 17 17 17 17 17 17 17 17 17 17 17 16 16
21 23 24 23 22 22 22 22 22 22 21 21 21 21 19 17 17 17 16 16 16 16 16 16 17 17 17 16 16 16 16 16 16 16 16 17 17 16 17 17 16 17 17 17 16 16 16 16 16
22 23 23 23 22 22 22 22 22 22 21 20 20 21 19 17 17 16 16 16 16 16 16 16 16 16 16 16 16 16 16 16 16 16 16 16 16 16 16 16 16 16 16 16 16 16 16 16 16
22 24 23 23 23 22 22 21 21 21 21 19 20 21 19 17 17 16 16 16 16 16 16 16 16 16 16 16 16 16 16 16 16 16 16 16 16 16 16 16 16 16 16 16 16 16 16 16 16
21 23 23 23 23 22 22 22 20 20 20 19 19 19 18 17 17 17 16 16 16 16 16 16 16 16 16 16 16 16 16 16 16 16 16 16 16 16 16 16 16 16 16 16 16 16 16 16 16
23 23 22 23 23 23 22 22 21 21 21 20 19 18 17 17 17 17 17 17 17 16 16 16 16 16 16 16 16 16 16 16 16 16 16 16 16 16 16 16 16 16 16 16 16 16 16 16 15
23 23 22 22 22 22 22 21 21 21 21 21 20 18 17 17 17 17 17 17 17 16 16 16 16 16 16 16 16 16 16 16 16 16 16 16 16 16 15 15 15 15 15 15 15 15 15 15 15
22 22 22 21 21 21 21 21 21 21 21 20 19 18 17 17 17 17 17 17 16 16 16 16 16 16 16 16 16 16 16 16 16 16 16 16 15 15 15 15 15 15 15 15 15 15 15 15 15
22 22 21 20 20 21 21 21 21 20 19 19 18 18 18 18 17 17 17 17 17 16 16 16 16 16 16 16 16 16 16 16 16 16 16 15 15 15 15 15 15 15 15 15 15 15 15 15 15
22 21 21 21 21 21 21 21 20 20 19 19 18 18 18 18 17 17 17 17 17 17 16 16 16 16 16 16 16 16 16 16 16 16 15 15 15 15 15 15 15 15 15 15 15 15 15 15 15
21 22 22 21 21 21 21 21 21 20 19 19 19 18 18 17 17 17 17 17 17 17 17 16 16 16 16 16 16 16 16 16 16 15 15 15 15 15 15 15 15 15 15 15 15 15 15 15 15
23 23 22 22 22 21 22 21 21 19 19 19 19 19 18 17 17 17 17 17 17 17 17 17 16 16 16 16 16 16 16 16 16 15 15 15 15 15 15 15 15 15 14 14 14 14 14 14 14
23 22 22 22 22 22 22 22 21 19 19 20 19 19 18 18 17 17 17 17 17 17 17 17 16 16 16 16 16 16 16 16 16 15 15 15 15 15 15 15 15 14 14 14 14 14 14 14 14
23 23 22 22 22 22 22 22 21 20 20 20 20 19 19 18 18 17 17 17 17 17 17 17 16 16 16 16 16 16 16 15 15 15 15 15 15 15 15 15 15 14 14 14 14 14 14 14 14
23 23 22 22 22 22 22 22 22 21 20 20 20 19 19 19 18 17 17 17 17 17 17 17 16 16 16 16 16 16 15 15 15 15 15 15 15 15 15 15 14 14 14 14 14 14 14 14 14
23 22 22 22 22 22 22 22 22 21 20 20 20 20 19 19 18 17 17 17 17 17 16 16 16 16 16 16 16 16 15 15 15 15 15 15 15 15 15 15 14 14 14 14 14 14 14 13 13
22 23 22 22 21 22 22 22 22 22 21 20 19 19 19 19 18 18 17 17 17 17 16 16 16 16 16 16 16 16 16 15 15 15 15 15 15 15 15 15 14 14 14 14 14 14 14 13 13
22 23 22 22 22 22 22 22 23 23 22 21 20 19 19 18 18 18 18 17 17 17 17 16 16 16 16 16 16 16 15 15 15 15 15 15 15 15 15 15 14 14 14 14 14 14 13 13 13
22 22 22 22 22 22 22 22 23 23 22 22 21 20 19 18 18 18 17 17 17 17 17 16 16 16 16 16 16 15 15 15 15 15 15 15 15 15 15 14 14 14 14 14 13 13 13 13 13
22 22 22 22 22 22 22 22 23 23 23 23 22 20 19 18 18 18 17 17 17 17 16 16 16 16 16 16 15 15 15 15 15 15 15 15 15 15 14 14 14 14 14 14 14 13 13 13 13
22 22 22 22 22 22 22 22 23 24 23 23 22 21 20 19 18 18 17 17 17 16 16 16 16 16 16 16 15 15 15 15 15 15 15 15 14 14 14 14 14 14 14 14 13 13 13 13 13
22 23 22 22 22 23 22 22 24 23 22 21 21 20 19 19 18 18 17 17 16 16 16 16 16 16 16 16 15 15 15 15 15 14 14 14 14 14 14 14 14 14 14 13 13 13 13 13 13
22 23 23 23 22 22 23 23 23 22 22 21 21 20 19 19 18 17 17 17 16 16 16 16 16 16 16 15 15 15 15 15 14 14 14 14 14 14 14 14 14 14 13 13 13 13 13 13 13
22 23 22 22 22 22 22 23 23 23 23 22 21 20 19 18 18 17 17 16 16 16 16 16 16 16 15 15 15 15 15 14 14 14 14 14 14 14 14 14 13 13 13 13 13 13 13 13 12
22 22 22 23 22 22 22 23 23 23 23 22 22 20 19 18 18 17 16 16 16 16 16 15 15 15 15 15 15 15 15 14 14 14 14 14 14 13 13 13 13 13 13 13 13 13 12 12 12
22 23 22 22 22 22 22 23 23 22 22 22 21 20 19 18 17 17 16 16 16 15 15 15 15 15 15 15 15 14 14 14 14 14 14 14 13 13 13 13 13 13 13 13 13 12 12 12 12
Wind_Speed
7 5 2 2 2 2 5 4 4 5 4 5 5 4 4 5 4 4 4 3 3 3 4 4 5 6 6 6 7 7 8 8 8 8 8 9 9 9 9 9 9 9 9 9 9 9 9 9 9
4 3 2 2 2 3 5 5 6 5 5 4 4 4 5 5 5 4 4 3 3 4 4 6 6 5 6 6 7 8 8 8 8 9 9 9 9 9 9 9 9 9 9 9 9 9 9 9 9
3 2 1 1 2 3 5 5 6 6 5 2 3 4 3 4 4 3 4 4 4 5 5 7 6 7 7 7 8 8 8 9 9 9 9 9 9 9 9 9 9 9 10 9 9 9 10 10 10
2 2 1 2 6 5 4 5 6 6 4 3 3 4 4 4 3 4 5 4 5 5 5 7 6 7 7 8 9 8 9 9 9 8 9 9 9 9 9 9 9 9 9 10 9 9 9 9 9
2 1 3 5 6 5 4 4 4 4 4 4 3 5 5 4 5 6 5 5 5 5 6 7 7 7 7 8 9 9 9 8 9 9 9 9 9 9 9 9 9 9 9 9 9 9 9 10 9
1 2 3 5 6 5 4 3 3 4 4 4 3 4 5 5 5 6 5 5 5 5 6 8 8 8 7 8 9 8 8 8 8 8 9 9 9 9 9 9 9 9 10 10 10 9 10 10 10
1 2 4 5 5 5 4 3 2 3 4 3 2 4 5 5 5 5 5 5 5 5 5 6 7 8 9 9 9 8 8 8 8 8 8 9 9 9 9 9 9 10 10 10 10 10 11 11 11
0 2 5 4 4 4 4 3 3 2 4 3 1 3 4 5 5 5 5 5 5 5 5 5 6 6 7 8 9 8 8 8 8 8 8 7 7 8 8 9 9 9 10 10 11 11 11 11 11
1 2 4 3 3 4 4 4 3 3 4 4 3 3 5 8 7 6 5 5 5 5 5 5 5 5 6 6 7 6 7 7 6 7 7 4 5 6 7 10 10 10 10 10 11 10 9 8 10
1 2 3 2 2 4 5 4 4 4 4 3 4 5 8 9 7 6 6 5 5 5 5 4 4 5 5 5 5 5 5 5 5 5 5 4 5 6 7 9 9 9 9 10 9 8 6 5 7
2 3 3 3 3 4 5 4 3 3 2 2 4 8 9 8 7 6 5 5 4 4 5 4 4 4 4 4 4 4 4 4 5 5 5 4 4 4 5 5 6 6 6 7 7 5 6 7 7
4 4 3 3 3 4 4 4 3 1 1 3 5 9 9 8 7 6 5 5 4 4 4 4 3 3 4 4 4 3 3 3 4 4 5 4 3 4 4 4 5 5 5 5 5 5 7 7 7
5 5 5 5 4 4 4 3 2 2 2 5 8 9 8 7 6 5 4 4 4 4 4 3 3 3 4 4 3 3 3 3 3 4 3 4 3 3 3 4 4 4 5 5 5 5 6 6 7
6 7 6 4 4 3 3 2 2 2 4 7 8 8 8 7 6 5 4 3 3 3 3 3 3 3 3 3 3 3 2 2 3 2 2 3 3 3 3 3 4 4 5 5 5 6 5 5 5
7 7 5 3 2 2 3 2 2 3 6 7 7 7 7 6 6 5 4 4 3 3 3 4 3 3 3 3 2 2 2 2 2 2 2 3 3 3 3 3 3 4 4 4 4 6 5 5 5
5 4 3 2 3 3 4 2 3 5 7 7 7 7 7 6 6 5 4 4 3 3 4 4 3 3 3 3 2 2 2 2 2 2 1 2 3 3 3 2 3 4 4 3 3 3 4 4 3
5 4 4 3 2 3 4 2 2 5 7 7 7 7 7 7 6 5 5 4 4 4 4 5 4 4 4 3 3 2 1 1 1 1 1 1 3 3 3 2 2 3 3 2 2 2 2 3 3
4 4 3 3 2 4 5 4 2 5 7 7 7 7 7 7 7 6 5 4 4 4 4 4 4 4 4 3 2 2 1 1 1 1 1 1 2 2 2 2 2 2 2 2 2 2 2 2 2
3 3 3 2 2 4 5 5 4 5 7 7 8 8 8 7 7 6 6 5 5 4 4 5 5 5 4 3 3 2 2 1 1 1 2 2 2 2 2 2 2 2 1 2 2 2 2 1 1
5 5 4 2 2 3 3 5 5 5 7 8 8 8 8 8 8 7 7 6 6 5 5 5 5 5 5 3 3 2 2 1 1 1 1 2 2 2 2 2 2 2 2 2 3 3 1 1 1
6 6 5 3 3 5 4 5 6 6 7 7 7 7 8 8 8 8 8 7 7 6 6 5 6 6 5 4 3 2 2 1 2 2 1 1 2 3 3 3 2 2 2 2 3 3 3 2 1
5 3 5 6 6 3 4 4 4 6 7 8 8 9 9 8 8 8 8 7 7 7 6 6 6 6 6 6 5 4 3 3 2 2 2 2 3 3 4 4 4 3 2 3 3 3 3 3 2
2 2 4 5 5 5 5 5 2 4 5 7 8 9 9 9 9 8 8 8 7 7 6 6 6 5 5 5 5 5 4 3 2 2 3 3 3 3 4 4 4 4 3 3 3 3 3 3 3
4 4 4 4 5 5 4 6 3 3 4 4 6 8 9 9 9 9 8 7 7 6 6 6 6 5 5 5 5 6 5 4 4 3 3 3 3 3 4 4 4 4 4 4 4 4 4 3 3
6 5 4 4 4 3 2 5 3 0 2 3 4 7 8 9 9 9 8 7 7 7 6 6 6 6 5 5 5 6 5 5 5 4 4 4 3 3 4 4 4 4 4 4 4 5 4 4 4
7 7 4 3 3 2 3 5 2 0 2 2 3 5 7 8 8 8 9 8 8 7 7 7 7 6 5 5 5 5 5 4 4 4 4 4 3 3 3 4 4 4 4 4 4 5 5 4 4
5 6 4 5 5 4 3 3 3 3 3 3 3 4 6 7 8 8 8 8 8 8 8 7 7 7 6 6 5 5 5 5 4 4 3 3 3 3 3 4 4 4 4 4 4 4 5 4 4
4 3 4 5 4 5 4 5 3 3 3 4 4 4 5 6 7 7 7 8 8 7 7 7 7 7 6 6 5 4 5 5 4 4 4 3 3 3 4 4 4 5 5 5 5 5 5 5 4
5 5 5 5 5 5 4 1 0 2 2 3 3 3 4 5 6 6 6 7 7 7 7 7 7 6 6 6 5 5 5 4 4 4 4 3 3 3 4 5 4 5 5 5 5 5 5 6 5
6 6 7 6 5 6 6 3 2 1 2 2 3 3 3 4 5 6 6 6 6 6 6 6 6 6 6 5 5 5 5 5 5 4 4 4 3 3 4 4 4 4 5 5 5 6 6 6 6
Wind_Direction
151 150 178 218 208 117 82 78 80 91 77 64 60 59 60 44 29 61 77 73 66 83 87 100 88 88 87 88 87 84 87 89 91 90 89 90 90 87 86 85 85 81 77 72 70 73 73 72 71
143 159 210 237 210 124 92 88 89 77 87 95 73 65 68 66 52 78 92 79 82 86 85 87 92 86 84 88 87 83 80 84 87 87 86 86 86 85 84 83 81 79 77 73 72 72 71 70 71
146 204 241 184 98 85 99 92 97 94 82 78 80 56 53 63 67 79 83 103 97 87 85 88 86 88 86 89 90 89 84 86 87 86 84 82 84 86 86 83 79 77 76 75 74 72 71 70 70
192 198 198 126 97 77 88 104 114 118 94 66 94 90 85 56 61 86 102 105 98 90 90 94 83 89 90 92 95 94 93 92 89 89 85 82 82 82 84 83 79 78 76 74 72 74 73 72 71
206 201 142 117 99 93 92 101 112 100 91 75 88 97 93 74 86 99 102 96 92 90 90 94 84 89 90 89 93 93 95 94 91 89 85 82 83 84 82 81 78 76 73 73 73 75 74 72 70
186 190 150 127 114 107 108 116 116 92 92 89 93 103 94 101 102 99 101 94 89 89 86 92 94 88 86 83 84 84 92 91 89 85 81 81 82 85 84 82 79 77 75 75 72 74 74 71 68
176 140 121 125 127 123 122 128 113 97 94 79 80 102 114 110 98 104 102 96 92 93 90 90 97 102 96 81 74 75 82 85 84 81 80 79 80 82 83 84 80 80 77 74 71 71 72 69 67
209 143 132 131 136 117 120 119 82 80 88 81 62 98 126 132 122 117 109 102 101 101 97 96 95 96 102 99 81 75 79 81 83 83 81 80 90 93 90 89 81 80 78 75 74 71 70 69 66
206 166 138 133 137 122 134 132 109 96 106 97 75 65 109 130 132 124 117 111 111 106 102 103 102 97 93 92 95 95 95 91 97 100 98 99 86 83 89 75 75 78 78 77 76 74 70 72 73
187 146 122 99 113 127 137 132 133 141 124 113 110 105 123 136 136 129 125 119 114 113 110 109 112 106 101 96 96 90 89 90 85 83 86 82 77 74 79 87 83 83 86 88 81 79 81 67 66
98 110 117 110 109 130 136 128 136 150 121 119 140 140 144 146 143 134 125 117 114 118 118 113 115 109 103 103 92 85 87 83 82 80 82 80 84 86 84 88 102 98 96 87 89 82 67 64 59
115 93 108 111 120 136 138 137 133 154 78 95 135 143 149 153 151 146 138 125 122 121 124 121 120 120 116 111 108 106 106 94 82 79 78 76 76 74 76 78 79 84 81 79 75 72 73 64 60
127 119 103 104 111 123 129 131 124 132 129 123 136 145 153 157 157 153 143 136 129 133 142 138 135 131 129 118 114 118 106 95 92 82 79 79 84 81 85 81 81 83 84 84 78 76 71 64 57
124 123 118 118 127 136 132 134 156 131 142 144 149 155 162 163 161 158 157 156 148 149 150 144 149 143 144 140 139 121 110 110 97 93 93 93 90 90 90 85 84 79 77 77 82 79 74 69 63
138 135 133 152 176 182 196 186 180 149 158 160 164 164 165 168 168 174 177 181 175 170 161 154 153 153 155 145 130 118 115 110 109 103 93 97 93 94 95 83 86 86 86 88 81 81 75 70 69
170 184 189 173 197 199 228 243 138 161 174 174 176 176 177 179 183 188 189 191 191 185 168 155 163 169 160 149 144 135 123 99 91 89 80 89 99 96 95 97 97 94 93 93 88 84 82 78 71
196 207 204 176 194 207 226 251 154 174 187 189 188 189 188 186 190 194 200 199 195 190 175 166 166 170 163 155 144 134 124 109 98 103 91 91 106 110 112 103 104 103 102 96 100 99 92 87 77
197 210 218 214 177 203 226 244 221 193 201 205 201 200 197 197 196 196 200 201 191 188 181 169 163 170 161 166 167 159 145 124 120 132 143 120 123 118 114 123 121 117 122 121 129 128 119 93 91
233 231 238 239 211 220 236 252 243 214 209 214 210 207 206 204 198 192 194 197 189 185 189 180 184 179 173 177 186 187 183 190 184 169 177 173 168 159 148 153 141 132 135 151 151 143 141 128 137
218 234 237 215 195 230 251 263 243 214 214 216 214 209 208 205 200 195 196 195 197 197 202 198 197 193 188 190 194 190 188 200 198 203 204 198 188 179 182 181 170 163 164 181 180 180 193 158 188
228 239 237 234 221 225 258 254 225 212 214 215 220 221 213 208 207 200 200 202 201 202 205 208 207 201 198 194 187 167 164 181 191 207 208 206 204 203 203 195 192 189 195 198 205 203 206 197 193
237 243 238 231 235 240 242 272 226 204 210 216 217 217 217 210 209 204 203 203 203 205 205 209 208 205 200 195 201 206 213 218 222 210 198 197 202 206 211 205 203 202 212 217 219 217 226 219 210
227 199 219 230 249 255 236 261 233 190 219 218 213 212 213 209 207 204 204 205 205 202 202 207 206 205 200 205 206 215 223 228 219 206 200 205 203 211 215 216 211 210 216 223 225 225 233 228 234
164 170 188 217 243 253 238 247 250 201 232 226 210 206 206 205 204 202 199 202 204 198 196 201 202 201 201 208 211 216 221 225 223 225 218 214 208 215 218 217 217 215 217 222 226 226 224 233 231
208 228 232 220 222 245 205 245 255 292 262 251 224 208 202 201 202 200 198 201 204 201 201 201 202 202 203 209 215 218 223 227 230 234 231 228 222 220 221 220 222 222 223 224 225 229 230 226 228
214 237 261 272 266 265 214 244 246 270 270 250 222 206 198 197 201 200 200 199 201 202 203 204 205 207 207 212 218 221 222 228 238 239 240 234 235 234 228 225 224 223 221 223 224 229 227 224 223
214 229 270 275 273 272 243 240 242 205 215 207 204 195 195 196 197 199 198 199 198 200 201 202 203 206 207 214 218 220 222 223 231 238 238 240 233 226 229 231 227 219 215 219 220 224 219 219 223
253 232 224 246 266 267 258 254 236 200 207 208 212 209 202 198 198 198 197 198 198 198 200 201 204 207 209 214 215 215 217 220 229 231 231 236 230 219 223 233 230 222 216 214 216 223 222 221 221
198 210 232 246 261 277 284 274 350 271 238 223 221 214 204 201 200 197 191 190 193 193 195 198 204 210 213 218 219 216 216 218 221 227 231 232 225 226 229 230 230 223 217 217 216 224 221 225 223
238 238 230 246 251 254 278 287 77 270 277 260 237 210 195 196 196 190 184 183 187 191 194 199 204 208 211 217 219 217 213 211 215 221 224 226 226 229 235 231 227 227 224 219 217 221 222 225 227
Height
1520 1521 1522 1524 1523 1521 1526 1527 1524 1526 1527 1530 1530 1530 1530 1531 1533 1540 1540 1538 1538 1538 1538 1537 1537 1537 1537 1537 1537 1538 1538 1538 1538 1538 1538 1538 1538 1538 1538 1537 1537 1537 1537 1536 1536 1536 1536 1535 1535
1522 1522 1524 1524 1520 1525 1530 1526 1527 1528 1531 1532 1532 1532 1532 1535 1537 1539 1539 1539 1539 1539 1539 1539 1538 1538 1538 1538 1538 1539 1539 1539 1539 1539 1539 1539 1539 1539 1539 1539 1539 1538 1538 1538 1537 1537 1537 1536 1536
1522 1523 1525 1521 1521 1525 1529 1527 1528 1531 1533 1533 1533 1534 1535 1538 1539 1540 1540 1540 1540 1540 1540 1539 1539 1539 1539 1539 1539 1540 1540 1540 1540 1540 1540 1540 1540 1540 1540 1540 1540 1540 1539 1539 1539 1538 1538 1538 1537
1524 1525 1525 1522 1526 1526 1527 1528 1530 1532 1533 1534 1534 1536 1538 1541 1541 1541 1541 1541 1541 1541 1541 1540 1540 1540 1541 1541 1541 1541 1541 1541 1541 1541 1541 1541 1542 1542 1542 1541 1541 1541 1541 1540 1540 1540 1539 1539 1538
1524 1524 1523 1525 1528 1528 1529 1531 1532 1532 1533 1535 1535 1536 1539 1542 1541 1542 1542 1542 1543 1542 1542 1542 1542 1542 1542 1542 1542 1542 1542 1542 1542 1543 1543 1543 1543 1543 1543 1543 1543 1542 1542 1542 1541 1541 1540 1540 1540
1525 1523 1524 1528 1529 1529 1531 1532 1533 1533 1534 1536 1536 1537 1541 1543 1543 1543 1543 1543 1544 1544 1543 1543 1543 1543 1543 1543 1543 1543 1543 1543 1544 1544 1544 1545 1545 1545 1544 1544 1544 1544 1544 1543 1543 1542 1542 1541 1541
1525 1522 1525 1527 1530 1530 1532 1533 1533 1533 1535 1537 1538 1538 1541 1543 1544 1544 1544 1544 1545 1545 1545 1545 1545 1544 1544 1544 1544 1545 1545 1545 1545 1545 1546 1546 1546 1546 1546 1546 1545 1545 1545 1545 1544 1544 1543 1543 1543
1525 1524 1526 1527 1530 1531 1533 1534 1536 1535 1537 1539 1539 1539 1541 1544 1544 1544 1545 1545 1546 1546 1546 1546 1546 1547 1547 1547 1546 1546 1546 1547 1547 1547 1547 1547 1548 1548 1547 1547 1547 1546 1546 1546 1546 1545 1545 1544 1544
1525 1525 1527 1528 1529 1531 1534 1534 1537 1538 1539 1540 1540 1541 1543 1544 1544 1545 1546 1547 1547 1547 1547 1547 1547 1548 1548 1549 1548 1548 1548 1548 1548 1548 1548 1549 1549 1549 1549 1548 1548 1548 1548 1547 1547 1547 1546 1546 1545
1525 1525 1528 1529 1529 1531 1534 1535 1536 1538 1538 1540 1541 1542 1543 1544 1545 1546 1547 1547 1548 1548 1548 1548 1549 1549 1550 1550 1550 1550 1550 1550 1550 1550 1550 1550 1550 1550 1550 1549 1549 1549 1549 1549 1548 1548 1548 1548 1547
1525 1527 1529 1531 1532 1533 1534 1536 1537 1537 1537 1539 1541 1543 1544 1545 1546 1547 1548 1548 1548 1549 1549 1549 1550 1550 1550 1551 1551 1551 1551 1551 1551 1551 1551 1551 1551 1551 1551 1551 1551 1550 1550 1550 1550 1550 1550 1549 1548
1528 1530 1531 1532 1534 1534 1535 1536 1537 1538 1539 1540 1541 1543 1544 1545 1547 1547 1548 1549 1549 1550 1550 1550 1551 1551 1551 1552 1552 1552 1553 1553 1553 1553 1553 1553 1552 1552 1552 1552 1552 1551 1551 1551 1551 1551 1551 1551 1550
1528 1532 1534 1535 1535 1536 1536 1537 1538 1539 1540 1541 1542 1543 1545 1546 1547 1548 1549 1550 1550 1550 1551 1551 1551 1552 1552 1552 1552 1553 1553 1554 1554 1553 1553 1553 1553 1553 1553 1553 1552 1552 1552 1552 1552 1552 1552 1552 1551
1530 1532 1534 1535 1536 1537 1536 1537 1538 1539 1541 1542 1542 1544 1545 1546 1547 1548 1549 1550 1550 1551 1552 1552 1552 1552 1553 1553 1553 1554 1554 1554 1554 1554 1554 1554 1554 1554 1554 1554 1553 1553 1553 1553 1553 1553 1553 1553 1552
1532 1532 1534 1535 1535 1536 1536 1536 1537 1539 1540 1541 1542 1544 1545 1546 1547 1548 1549 1550 1551 1551 1552 1552 1552 1553 1553 1554 1554 1554 1554 1554 1554 1554 1555 1554 1554 1554 1554 1554 1554 1554 1554 1554 1554 1554 1554 1553 1553
1530 1530 1533 1534 1534 1535 1537 1537 1537 1539 1540 1541 1542 1543 1545 1546 1547 1548 1549 1550 1550 1551 1552 1552 1552 1553 1553 1554 1554 1554 1554 1554 1554 1554 1554 1555 1555 1555 1554 1554 1554 1554 1554 1554 1555 1555 1555 1554 1554
1529 1531 1531 1533 1533 1533 1534 1534 1536 1538 1539 1539 1541 1542 1543 1545 1546 1547 1548 1549 1550 1551 1551 1552 1552 1553 1553 1554 1554 1554 1554 1554 1554 1554 1554 1554 1555 1555 1554 1554 1554 1554 1554 1555 1555 1555 1555 1555 1555
1530 1529 1530 1531 1532 1532 1532 1533 1534 1536 1537 1538 1539 1540 1542 1543 1544 1545 1547 1548 1549 1550 1551 1552 1552 1552 1553 1553 1554 1554 1554 1555 1554 1554 1554 1554 1554 1555 1555 1554 1555 1555 1555 1555 1555 1555 1555 1555 1555
1525 1527 1529 1529 1530 1531 1531 1531 1531 1533 1535 1535 1536 1538 1539 1541 1543 1544 1545 1547 1548 1549 1550 1551 1551 1552 1552 1553 1554 1554 1554 1554 1554 1554 1554 1554 1554 1555 1555 1555 1555 1555 1555 1555 1555 1555 1555 1555 1555
1526 1528 1528 1529 1529 1530 1529 1528 1527 1529 1531 1532 1533 1535 1537 1539 1541 1542 1544 1545 1546 1548 1549 1550 1550 1551 1552 1552 1553 1553 1554 1554 1554 1554 1554 1554 1554 1554 1554 1555 1555 1555 1555 1555 1555 1555 1555 1555 1555
1526 1526 1527 1529 1530 1528 1529 1527 1525 1525 1528 1530 1532 1533 1534 1536 1538 1540 1542 1543 1545 1546 1547 1548 1549 1550 1551 1551 1552 1552 1553 1553 1553 1553 1553 1553 1553 1554 1554 1554 1554 1554 1554 1554 1554 1554 1554 1555 1555
1526 1524 1526 1528 1529 1528 1528 1529 1519 1520 1523 1526 1528 1530 1531 1533 1535 1537 1539 1541 1543 1544 1545 1547 1548 1549 1549 1550 1551 1552 1552 1552 1552 1552 1552 1552 1552 1553 1553 1553 1553 1553 1553 1553 1554 1553 1553 1554 1554
1524 1525 1525 1526 1527 1527 1525 1527 1518 1517 1519 1520 1523 1526 1528 1531 1532 1535 1537 1539 1540 1542 1543 1545 1546 1547 1548 1548 1549 1550 1551 1551 1551 1551 1551 1551 1551 1551 1552 1552 1552 1552 1552 1552 1552 1552 1552 1552 1553
1525 1525 1526 1525 1525 1531 1523 1525 1519 1512 1514 1515 1519 1522 1525 1527 1530 1532 1534 1536 1538 1539 1541 1542 1543 1545 1546 1547 1547 1548 1549 1549 1549 1549 1549 1550 1550 1550 1550 1550 1550 1550 1550 1550 1550 1550 1550 1550 1551
1524 1525 1531 1531 1531 1527 1520 1522 1516 1509 1512 1514 1516 1519 1521 1524 1527 1529 1531 1533 1535 1536 1538 1539 1541 1542 1543 1544 1545 1546 1547 1547 1548 1548 1547 1548 1548 1548 1548 1548 1548 1548 1548 1548 1548 1548 1549 1549 1549
1520 1521 1529 1534 1530 1522 1520 1519 1511 1510 1512 1514 1515 1517 1519 1521 1524 1526 1528 1530 1532 1533 1535 1537 1538 1539 1541 1542 1543 1544 1545 1545 1546 1546 1545 1545 1545 1545 1546 1546 1546 1546 1546 1546 1546 1546 1547 1547 1547
1519 1518 1517 1521 1521 1524 1516 1512 1509 1509 1511 1513 1514 1515 1517 1519 1521 1523 1525 1527 1529 1531 1532 1534 1536 1537 1539 1540 1541 1541 1542 1543 1543 1543 1543 1543 1543 1543 1543 1543 1544 1544 1544 1544 1544 1544 1545 1545 1545
1517 1516 1519 1522 1528 1527 1519 1514 1510 1506 1507 1509 1511 1513 1515 1517 1519 1521 1522 1524 1526 1528 1530 1532 1533 1535 1536 1537 1538 1539 1539 1540 1540 1541 1541 1540 1540 1540 1541 1541 1541 1541 1541 1541 1542 1542 1542 1542 1542
1518 1519 1517 1516 1518 1524 1523 1515 1503 1504 1506 1507 1509 1511 1513 1515 1516 1518 1520 1522 1524 1526 1527 1529 1530 1532 1533 1534 1535 1536 1537 1537 1538 1538 1538 1538 1538 1538 1538 1538 1538 1539 1539 1539 1539 1539 1540 1540 1540
1512 1512 1514 1520 1519 1518 1519 1515 1503 1505 1507 1508 1509 1510 1512 1513 1515 1516 1518 1519 1521 1523 1525 1526 1528 1529 1530 1531 1532 1533 1534 1534 1534 1535 1535 1535 1535 1535 1535 1535 1535 1535 1536 1536 1536 1536 1537 1537 1537